Carrollton, GA

4:06 AM EST on November 18, 2019 (GMT -0500)
West Georgia Regional-Gray

Weather History for KCTJ - September, 2019

Change the Weather History Date:

Sunday, September 29, 2019

  Actual Average Record
Temperature  
Mean Temperature 78 °F -  
Max Temperature 90 °F 78 °F 90 °F (1954)
Min Temperature 67 °F 54 °F 39 °F (1962)
Cooling Degree Days 14    
Growing Degree Days 28 (Base 50)    
Moisture  
Dew Point 67 °F    
Average Humidity 75    
Maximum Humidity 96    
Minimum Humidity 41    
Precipitation  
Precipitation 0.00 in - - ()
Sea Level Pressure  
Sea Level Pressure 30.23 in    
Wind  
Wind Speed 1 mph (SSE)    
Max Wind Speed 8 mph    
Max Gust Speed -    
Visibility 10 miles    
Events      
Averages and records for this station are not official NWS values.
T = Trace of Precipitation, MM = Missing Value Source: NWS Daily Summary

Daily Weather History Graph

Daily Weather History Graph

Search for Another Location

Airport or City:

Astronomy

Sep. 29, 2019 Rise Set
Actual Time 7:33 AM EDT 7:27 PM EDT
Civil Twilight 7:08 AM EDT 7:52 PM EDT
Nautical Twilight 6:39 AM EDT 8:21 PM EDT
Astronomical Twilight 6:10 AM EDT 8:50 PM EDT
Moon 8:23 AM EDT (9/29) 8:29 PM EDT (9/29)
Length of Visible Light 12h 44m
Length of Day
11h 54m
New Moon, 1% of the Moon is Illuminated
Sep 29
New Moon
Oct 5
First Quarter
Oct 13
Full
Oct 21
Last Quarter
Oct 27
New

Hourly Weather History & Observations

Time (EDT) Temp. Heat Index Dew Point Humidity Pressure Visibility Wind Dir Wind Speed Gust Speed Precip Events Conditions
12:15 AM 70.5 °F - 67.1 °F 89% 30.20 in 10.0 mi Calm Calm - N/A   Clear
12:35 AM 69.8 °F - 67.3 °F 92% 30.20 in 10.0 mi Calm Calm - N/A   Clear
1:15 AM 68.9 °F - 66.6 °F 92% 30.20 in 10.0 mi Calm Calm - N/A   Clear
1:35 AM 69.4 °F - 66.7 °F 91% 30.21 in 10.0 mi Calm Calm - N/A   Clear
1:55 AM 68.9 °F - 66.9 °F 93% 30.21 in 10.0 mi Calm Calm - N/A   Clear
2:15 AM 68.7 °F - 66.6 °F 93% 30.21 in 10.0 mi Calm Calm - N/A   Clear
2:35 AM 68.9 °F - 66.7 °F 93% 30.22 in 10.0 mi Calm Calm - N/A   Clear
2:55 AM 69.3 °F - 66.7 °F 92% 30.22 in 10.0 mi Calm Calm - N/A   Clear
3:15 AM 69.6 °F - 66.6 °F 90% 30.22 in 10.0 mi Calm Calm - N/A   Clear
3:55 AM 67.8 °F - 66.4 °F 95% 30.21 in 10.0 mi Calm Calm - N/A   Clear
4:15 AM 67.8 °F - 66.4 °F 95% 30.21 in 10.0 mi Calm Calm - N/A   Clear
4:35 AM 68.5 °F - 66.7 °F 94% 30.22 in 10.0 mi Calm Calm - N/A   Clear
4:55 AM 68.5 °F - 66.6 °F 93% 30.22 in 10.0 mi Calm Calm - N/A   Clear
5:15 AM 68.5 °F - 66.9 °F 95% 30.22 in 10.0 mi Calm Calm - N/A   Clear
5:35 AM 68.9 °F - 66.9 °F 93% 30.22 in 10.0 mi Calm Calm - N/A   Clear
5:55 AM 68.5 °F - 66.7 °F 94% 30.23 in 10.0 mi Calm Calm - N/A   Clear
6:15 AM 68.9 °F - 67.1 °F 94% 30.23 in 10.0 mi Calm Calm - N/A   Clear
6:35 AM 68.5 °F - 66.9 °F 95% 30.25 in 10.0 mi Calm Calm - N/A   Clear
6:55 AM 68.2 °F - 66.7 °F 95% 30.25 in 10.0 mi Calm Calm - N/A   Clear
7:15 AM 67.6 °F - 66.6 °F 96% 30.26 in 7.0 mi Calm Calm - N/A   Clear
7:35 AM 67.5 °F - 66.4 °F 96% 30.26 in 10.0 mi Calm Calm - N/A   Clear
7:55 AM 67.1 °F - 65.8 °F 96% 30.26 in 7.0 mi Calm Calm - N/A   Clear
8:15 AM 67.5 °F - 66.4 °F 96% 30.27 in 10.0 mi Calm Calm - N/A   Clear
8:35 AM 68.7 °F - 67.3 °F 95% 30.27 in 10.0 mi Calm Calm - N/A   Clear
8:55 AM 70.9 °F - 68.0 °F 91% 30.28 in 10.0 mi Calm Calm - N/A   Clear
9:15 AM 72.1 °F - 68.4 °F 88% 30.29 in 10.0 mi Calm Calm - N/A   Clear
9:35 AM 73.2 °F - 68.4 °F 85% 30.29 in 10.0 mi SE 3.5 mph - N/A   Clear
9:55 AM 74.5 °F - 68.5 °F 82% 30.29 in 10.0 mi Calm Calm - N/A   Clear
10:15 AM 76.3 °F - 68.9 °F 78% 30.29 in 10.0 mi Calm Calm - N/A   Clear
10:35 AM 77.9 °F - 69.1 °F 74% 30.30 in 10.0 mi Calm Calm - N/A   Clear
10:55 AM 79.3 °F - 69.3 °F 71% 30.30 in 10.0 mi Calm Calm - N/A   Clear
11:15 AM 81.1 °F 84.5 °F 69.8 °F 68% 30.29 in 10.0 mi Calm Calm - N/A   Clear
11:35 AM 82.2 °F 85.8 °F 69.4 °F 65% 30.28 in 10.0 mi Calm Calm - N/A   Clear
11:55 AM 84.0 °F 87.8 °F 69.4 °F 61% 30.28 in 10.0 mi Calm Calm - N/A   Clear
12:15 PM 84.7 °F 88.5 °F 68.9 °F 59% 30.27 in 10.0 mi SE 3.5 mph - N/A   Clear
12:35 PM 86.4 °F 90.0 °F 68.5 °F 55% 30.27 in 10.0 mi Calm Calm - N/A   Clear
12:55 PM 86.5 °F 90.0 °F 68.0 °F 54% 30.26 in 10.0 mi SSE 4.6 mph - N/A   Scattered Clouds
1:15 PM 86.9 °F 89.9 °F 67.3 °F 52% 30.26 in 10.0 mi SE 8.1 mph - N/A   Scattered Clouds
1:35 PM 87.8 °F 90.7 °F 66.9 °F 50% 30.25 in 10.0 mi SSE 6.9 mph - N/A   Mostly Cloudy
1:55 PM 87.3 °F 89.8 °F 66.7 °F 50% 30.25 in 10.0 mi Calm Calm - N/A   Scattered Clouds
2:15 PM 88.0 °F 90.7 °F 66.4 °F 49% 30.24 in 10.0 mi SSE 5.8 mph - N/A   Scattered Clouds
2:35 PM 88.7 °F 91.5 °F 66.6 °F 48% 30.23 in 10.0 mi South 5.8 mph - N/A   Clear
2:55 PM 89.2 °F 92.0 °F 66.4 °F 47% 30.22 in 10.0 mi SW 3.5 mph - N/A   Clear
3:15 PM 89.8 °F 92.5 °F 66.2 °F 46% 30.22 in 10.0 mi SE 5.8 mph - N/A   Clear
3:35 PM 89.4 °F 91.5 °F 65.5 °F 45% 30.22 in 10.0 mi East 3.5 mph - N/A   Clear
3:55 PM 88.3 °F 90.2 °F 65.1 °F 46% 30.21 in 10.0 mi Calm Calm - N/A   Clear
4:15 PM 89.4 °F 91.2 °F 64.6 °F 44% 30.20 in 10.0 mi SE 4.6 mph - N/A   Clear
4:35 PM 90.1 °F 92.0 °F 64.8 °F 43% 30.20 in 10.0 mi West 4.6 mph - N/A   Clear
4:55 PM 90.1 °F 92.0 °F 64.9 °F 43% 30.20 in 10.0 mi ESE 3.5 mph - N/A   Scattered Clouds
5:15 PM 90.5 °F 91.8 °F 64.0 °F 41% 30.20 in 10.0 mi Calm Calm - N/A   Clear
5:35 PM 89.6 °F 91.1 °F 64.2 °F 43% 30.20 in 10.0 mi Calm Calm - N/A   Scattered Clouds
5:55 PM 89.8 °F 91.4 °F 64.6 °F 43% 30.20 in 10.0 mi SE 4.6 mph - N/A   Clear
6:15 PM 89.1 °F 90.6 °F 64.4 °F 44% 30.20 in 10.0 mi SSE 4.6 mph - N/A   Clear
6:35 PM 87.6 °F 89.7 °F 65.7 °F 48% 30.20 in 10.0 mi Calm Calm - N/A   Clear
6:55 PM 84.2 °F 87.1 °F 67.3 °F 57% 30.20 in 10.0 mi Calm Calm - N/A   Clear
7:15 PM 81.3 °F 84.1 °F 68.0 °F 64% 30.20 in 10.0 mi Calm Calm - N/A   Clear
7:35 PM 79.9 °F - 68.4 °F 68% 30.20 in 10.0 mi Calm Calm - N/A   Clear
7:55 PM 77.9 °F - 68.9 °F 74% 30.20 in 10.0 mi Calm Calm - N/A   Clear
8:15 PM 77.0 °F - 68.4 °F 75% 30.21 in 10.0 mi Calm Calm - N/A   Clear
8:35 PM 75.7 °F - 68.2 °F 77% 30.21 in 10.0 mi Calm Calm - N/A   Clear
8:55 PM 74.8 °F - 67.8 °F 79% 30.22 in 10.0 mi Calm Calm - N/A   Clear
9:15 PM 74.1 °F - 68.0 °F 81% 30.22 in 10.0 mi Calm Calm - N/A   Clear
9:35 PM 73.4 °F - 68.0 °F 83% 30.22 in 10.0 mi Calm Calm - N/A   Clear
9:55 PM 72.3 °F - 67.8 °F 86% 30.23 in 10.0 mi Calm Calm - N/A   Clear
10:15 PM 71.8 °F - 67.5 °F 86% 30.23 in 10.0 mi Calm Calm - N/A   Clear
10:35 PM 71.2 °F - 67.5 °F 88% 30.23 in 10.0 mi Calm Calm - N/A   Clear
10:55 PM 71.4 °F - 67.3 °F 87% 30.23 in 10.0 mi Calm Calm - N/A   Clear
11:15 PM 70.7 °F - 67.1 °F 88% 30.23 in 10.0 mi Calm Calm - N/A   Clear
11:35 PM 70.2 °F - 66.7 °F 89% 30.23 in 10.0 mi Calm Calm - N/A   Clear
11:55 PM 70.2 °F - 66.9 °F 89% 30.23 in 10.0 mi Calm Calm - N/A   Clear